When you browse on this site, cookies collect data to enhance your experience and personalize the content and advertising you see.
Visit our Privacy Policy to learn more. By continuing to use the site, you agree to this use of cookies and data.
  • în România
  • Lista ţărilor
  • Pe 7 zile
  • Temperatura apei
  • Hartă satelitară
  • Meteo pe hartă
  • Widget-uri
  • user-avatar
    Intrare

    Meteo pe oră la Kangly

    Astăzi, 17 Noiembrie, Sâmbătă

    Timp Temperatura Precipitaţii Vânt Presiune Umiditate
    00:00 +3°C° 0.1 mm 5 m/s 738 mmHg 89%
    01:00 +3°C° 0 mm 5 m/s 738 mmHg 89%
    02:00 +4°C° 0 mm 4 m/s 738 mmHg 89%
    03:00 +4°C° 0 mm 2 m/s 739 mmHg 86%
    04:00 +3°C° 0.1 mm 3 m/s 739 mmHg 87%
    05:00 +2°C° 0.1 mm 3 m/s 739 mmHg 88%
    06:00 +1°C° 0.1 mm 4 m/s 739 mmHg 89%
    07:00 +2°C° 0.6 mm 3 m/s 739 mmHg 90%
    08:00 +3°C° 0.6 mm 3 m/s 739 mmHg 90%
    09:00 +3°C° 0 mm 3 m/s 740 mmHg 90%
    10:00 +4°C° 1.3 mm 2 m/s 740 mmHg 92%
    11:00 +4°C° 1.3 mm 2 m/s 740 mmHg 93%
    12:00 +4°C° 1.3 mm 2 m/s 740 mmHg 95%
    13:00 +4°C° 0.2 mm 2 m/s 740 mmHg 95%
    14:00 +5°C° 0.2 mm 1 m/s 741 mmHg 95%
    15:00 +4°C° 0 mm 1 m/s 741 mmHg 95%
    16:00 +4°C° 0 mm 1 m/s 741 mmHg 95%
    17:00 +4°C° 0 mm 1 m/s 741 mmHg 94%
    18:00 +4°C° 0 mm 1 m/s 741 mmHg 94%
    19:00 +4°C° 0 mm 1 m/s 741 mmHg 93%
    20:00 +4°C° 0 mm 1 m/s 741 mmHg 93%
    21:00 +3°C° 0 mm 0 m/s 741 mmHg 92%
    22:00 +3°C° 0.1 mm 0 m/s 741 mmHg 92%
    23:00 +3°C° 0.1 mm 0 m/s 741 mmHg 92%

    Mâine, 18 Noiembrie, Duminică

    Timp Temperatura Precipitaţii Vânt Presiune Umiditate
    00:00 +3°C° 0.1 mm 0 m/s 741 mmHg 92%
    01:00 +3°C° 0.2 mm 0 m/s 741 mmHg 91%
    02:00 +3°C° 0.2 mm 0 m/s 741 mmHg 91%
    03:00 +3°C° 0.2 mm 0 m/s 741 mmHg 91%
    04:00 +4°C° 0.1 mm 0 m/s 741 mmHg 91%
    05:00 +4°C° 0.1 mm 0 m/s 740 mmHg 90%
    06:00 +4°C° 0.1 mm 0 m/s 740 mmHg 90%
    07:00 +4°C° 0.1 mm 0 m/s 740 mmHg 89%
    08:00 +5°C° 0.1 mm 0 m/s 740 mmHg 88%
    09:00 +5°C° 0.1 mm 0 m/s 740 mmHg 87%
    10:00 +6°C° 0 mm 0 m/s 740 mmHg 83%
    11:00 +7°C° 0 mm 0 m/s 739 mmHg 80%
    12:00 +8°C° 0 mm 0 m/s 739 mmHg 77%
    13:00 +8°C° 0 mm 0 m/s 739 mmHg 77%
    14:00 +9°C° 0 mm 1 m/s 739 mmHg 77%
    15:00 +9°C° 0 mm 1 m/s 739 mmHg 77%
    16:00 +9°C° 0 mm 1 m/s 739 mmHg 81%
    17:00 +8°C° 0 mm 1 m/s 739 mmHg 85%
    18:00 +7°C° 0 mm 1 m/s 740 mmHg 89%
    19:00 +7°C° 0 mm 1 m/s 740 mmHg 90%
    20:00 +6°C° 0 mm 1 m/s 739 mmHg 91%
    21:00 +6°C° 0 mm 1 m/s 739 mmHg 92%
    22:00 +6°C° 0 mm 1 m/s 739 mmHg 93%
    23:00 +5°C° 0 mm 1 m/s 739 mmHg 93%

    Poimâine, 19 Noiembrie, Luni

    Timp Temperatura Precipitaţii Vânt Presiune Umiditate
    00:00 +5°C° 0 mm 1 m/s 739 mmHg 94%
    01:00 +4°C° 0 mm 2 m/s 739 mmHg 93%
    02:00 +4°C° 0 mm 2 m/s 739 mmHg 93%
    03:00 +4°C° 0 mm 2 m/s 739 mmHg 92%
    04:00 +4°C° 0 mm 2 m/s 739 mmHg 92%
    05:00 +4°C° 0 mm 2 m/s 739 mmHg 91%
    06:00 +3°C° 0 mm 3 m/s 739 mmHg 90%
    07:00 +4°C° 0 mm 3 m/s 739 mmHg 88%
    08:00 +4°C° 0 mm 3 m/s 739 mmHg 86%
    09:00 +4°C° 0 mm 4 m/s 739 mmHg 83%
    10:00 +5°C° 0 mm 4 m/s 739 mmHg 80%
    11:00 +6°C° 0 mm 4 m/s 738 mmHg 77%
    12:00 +7°C° 0 mm 5 m/s 738 mmHg 74%
    13:00 +7°C° 0 mm 5 m/s 738 mmHg 74%
    14:00 +7°C° 0 mm 5 m/s 737 mmHg 74%
    15:00 +7°C° 0 mm 5 m/s 737 mmHg 74%
    16:00 +6°C° 0 mm 5 m/s 737 mmHg 77%
    17:00 +5°C° 0 mm 4 m/s 737 mmHg 81%
    18:00 +4°C° 0 mm 4 m/s 737 mmHg 85%
    19:00 +4°C° 0 mm 4 m/s 737 mmHg 85%
    20:00 +4°C° 0 mm 4 m/s 737 mmHg 86%
    21:00 +4°C° 0 mm 4 m/s 737 mmHg 86%
    22:00 +4°C° 0.1 mm 4 m/s 737 mmHg 87%
    23:00 +4°C° 0.1 mm 4 m/s 737 mmHg 87%

    20 Noiembrie, Marţi

    Timp Temperatura Precipitaţii Vânt Presiune Umiditate
    00:00 +4°C° 0.1 mm 4 m/s 737 mmHg 87%
    01:00 +4°C° 0.1 mm 3 m/s 737 mmHg 88%
    02:00 +4°C° 0.1 mm 3 m/s 737 mmHg 89%
    03:00 +5°C° 0.1 mm 2 m/s 737 mmHg 90%
    04:00 +5°C° 0.2 mm 2 m/s 736 mmHg 90%
    05:00 +5°C° 0.2 mm 2 m/s 736 mmHg 90%
    06:00 +5°C° 0.2 mm 2 m/s 736 mmHg 90%
    07:00 +5°C° 0.2 mm 2 m/s 736 mmHg 89%
    08:00 +6°C° 0.2 mm 2 m/s 736 mmHg 88%
    09:00 +6°C° 0.2 mm 2 m/s 736 mmHg 88%
    10:00 +7°C° 0.9 mm 1 m/s 736 mmHg 87%
    11:00 +8°C° 0.9 mm 1 m/s 736 mmHg 86%
    12:00 +8°C° 0.9 mm 1 m/s 735 mmHg 86%
    13:00 +8°C° 0.4 mm 1 m/s 735 mmHg 85%
    14:00 +8°C° 0.4 mm 2 m/s 735 mmHg 85%
    15:00 +8°C° 0.4 mm 2 m/s 735 mmHg 85%
    16:00 +8°C° 0.1 mm 2 m/s 736 mmHg 86%
    17:00 +7°C° 0.1 mm 2 m/s 736 mmHg 87%
    18:00 +8°C° 0.1 mm 1 m/s 736 mmHg 88%
    19:00 +8°C° 0.2 mm 1 m/s 736 mmHg 89%
    20:00 +8°C° 0.2 mm 1 m/s 736 mmHg 90%
    21:00 +7°C° 0.2 mm 1 m/s 736 mmHg 91%
    22:00 +7°C° 0.2 mm 1 m/s 736 mmHg 91%
    23:00 +7°C° 0.2 mm 1 m/s 736 mmHg 90%

    21 Noiembrie, Miercuri

    Timp Temperatura Precipitaţii Vânt Presiune Umiditate
    00:00 +7°C° 0.2 mm 1 m/s 736 mmHg 90%
    01:00 +7°C° 0.1 mm 1 m/s 736 mmHg 90%
    02:00 +7°C° 0.1 mm 1 m/s 736 mmHg 89%
    03:00 +6°C° 0.1 mm 2 m/s 737 mmHg 89%
    04:00 +6°C° 0 mm 2 m/s 736 mmHg 89%
    05:00 +6°C° 0 mm 2 m/s 736 mmHg 89%
    06:00 +6°C° 0 mm 2 m/s 736 mmHg 89%
    07:00 +7°C° 0 mm 2 m/s 736 mmHg 86%
    08:00 +7°C° 0 mm 2 m/s 736 mmHg 84%
    09:00 +8°C° 0 mm 2 m/s 736 mmHg 81%
    10:00 +8°C° 0 mm 3 m/s 736 mmHg 77%
    11:00 +9°C° 0 mm 3 m/s 736 mmHg 73%
    12:00 +10°C° 0 mm 3 m/s 735 mmHg 69%
    13:00 +10°C° 0 mm 3 m/s 735 mmHg 69%
    14:00 +10°C° 0 mm 2 m/s 735 mmHg 70%
    15:00 +10°C° 0 mm 2 m/s 735 mmHg 70%
    16:00 +9°C° 0 mm 2 m/s 735 mmHg 75%
    17:00 +9°C° 0 mm 1 m/s 735 mmHg 79%
    18:00 +9°C° 0 mm 1 m/s 735 mmHg 84%
    19:00 +8°C° 0 mm 1 m/s 735 mmHg 85%
    20:00 +8°C° 0 mm 1 m/s 735 mmHg 86%
    21:00 +8°C° 0 mm 1 m/s 735 mmHg 87%
    22:00 +8°C° 0 mm 1 m/s 734 mmHg 87%
    23:00 +7°C° 0 mm 1 m/s 734 mmHg 88%

    22 Noiembrie, Joi

    Timp Temperatura Precipitaţii Vânt Presiune Umiditate
    00:00 +7°C° 0 mm 1 m/s 734 mmHg 88%
    01:00 +7°C° 0 mm 1 m/s 734 mmHg 89%
    02:00 +7°C° 0 mm 1 m/s 733 mmHg 90%
    03:00 +7°C° 0 mm 1 m/s 733 mmHg 90%
    04:00 +6°C° 0.3 mm 2 m/s 733 mmHg 91%
    05:00 +5°C° 0.3 mm 2 m/s 733 mmHg 92%
    06:00 +5°C° 0.3 mm 2 m/s 733 mmHg 93%
    07:00 +5°C° 0.4 mm 2 m/s 733 mmHg 92%
    08:00 +5°C° 0.4 mm 2 m/s 734 mmHg 92%
    09:00 +5°C° 0.4 mm 2 m/s 734 mmHg 91%
    10:00 +5°C° 0.2 mm 2 m/s 733 mmHg 90%
    11:00 +5°C° 0.2 mm 2 m/s 733 mmHg 89%
    12:00 +5°C° 0.2 mm 2 m/s 733 mmHg 87%
    13:00 +5°C° 0.1 mm 2 m/s 733 mmHg 87%
    14:00 +5°C° 0.1 mm 2 m/s 733 mmHg 87%
    15:00 +5°C° 0.1 mm 2 m/s 733 mmHg 86%
    16:00 +5°C° 0.3 mm 2 m/s 733 mmHg 87%
    17:00 +5°C° 0.3 mm 2 m/s 734 mmHg 87%
    18:00 +5°C° 0.3 mm 2 m/s 734 mmHg 88%
    19:00 +4°C° 0.3 mm 2 m/s 734 mmHg 88%
    20:00 +5°C° 0.3 mm 1 m/s 734 mmHg 88%
    21:00 +5°C° 0.3 mm 1 m/s 734 mmHg 88%
    22:00 +5°C° 0.1 mm 1 m/s 734 mmHg 87%
    23:00 +5°C° 0.1 mm 1 m/s 735 mmHg 87%
    Arată mai mult